Location: Betzi
(47.2343°N, 9.5260°E)
Time: 06:36:33
(UTC+00:00)

Cosmos 2237 Rocket - Visible Passes

Search period start: 06 October 2022 00:00
Search period end: 16 October 2022 00:00
Orbit: 836 x 848 km, 71.0° (Epoch: 05 October)

Date Brightness Start Highest point End Pass type
(mag) Time Alt. Az. Time Alt. Az. Time Alt. Az.
06 Oct 4.7 04:12:01 10° N 04:15:27 16° NE 04:18:53 10° ENE visible
07 Oct 4.8 03:57:10 10° N 04:00:30 16° NE 04:03:49 10° ENE visible
08 Oct 4.8 03:42:19 10° N 03:45:32 15° NE 03:48:44 10° ENE visible
09 Oct 4.8 03:27:28 10° N 03:30:34 15° NE 03:33:39 10° ENE visible
10 Oct 4.9 03:12:38 10° N 03:15:35 14° NE 03:18:33 10° ENE visible
10 Oct 2.9 04:55:22 10° NNW 05:00:57 57° ENE 05:06:30 10° SE visible
11 Oct 4.9 02:57:48 10° N 03:00:37 14° NE 03:03:26 10° ENE visible
11 Oct 3.0 04:40:27 10° NNW 04:46:01 55° ENE 04:51:33 10° SE visible
12 Oct 4.9 02:42:58 10° N 02:45:39 13° NE 02:48:19 10° ENE visible
12 Oct 3.0 04:25:33 10° NNW 04:31:05 53° ENE 04:36:36 10° SE visible
13 Oct 5.0 02:28:08 10° N 02:30:40 13° NNE 02:33:12 10° ENE visible
13 Oct 3.1 04:10:39 10° NNW 04:16:09 51° ENE 04:21:39 10° SE visible
13 Oct 4.2 19:05:03 10° S 19:05:48 14° S 19:05:48 14° S visible
13 Oct5.421:02:22NNE21:02:22NNE20:47:47WSWvisible
14 Oct 5.0 02:13:19 10° N 02:15:41 13° NNE 02:18:04 10° ENE visible
14 Oct 3.2 03:55:45 10° NNW 04:01:13 48° NE 04:06:41 10° SE visible
14 Oct 2.9 18:50:11 10° S 18:53:34 35° SSE 18:53:34 35° SSE visible
14 Oct 4.7 20:35:04 10° WSW 20:35:34 12° WSW 20:35:34 12° WSW visible
15 Oct 5.0 01:58:31 10° N 02:00:43 12° NNE 02:02:54 10° NE visible
15 Oct 3.2 03:40:51 10° NNW 03:46:18 46° NE 03:51:44 10° SE visible
15 Oct 2.2 18:35:18 10° S 18:40:42 51° ESE 18:41:22 48° E visible
15 Oct 4.0 20:20:04 10° WSW 20:23:22 26° W 20:23:22 26° W visible
